Find Starlink 35757

NORAD ID: 66270 Int'l Des: 2025-247 Owner: SPXS Country: US Constellation: starlink operational
LEOCIRCULAR

Current View

Loading 3D Globe...

About Starlink 35757

Description loading...

Upcoming Passes

Passes for default location (London). Set your location on the main map for personalized predictions.

Altitude History

Loading altitude history...

Two-Line Element Set

1 66270U 25247F 26146.11846150 .00020629 00000-0 61998-3 0 9991
2 66270 53.1606 190.7141 0001399 100.2383 259.8778 15.34401017 32957
Epoch: May 26, 2026 • Age: 13 hours

Current Status

Altitude 462.8 km
Velocity 7.64 km/s
Sub-Earth Point 23.09°N, 134.65°W
Launch Date Oct 31, 2025
Age 0.5 years
Type internet

Technical Details

Classification Payload
Mass 575.00 kg
Dry Mass 530.00 kg
Total Mass 575.00 kg
Length 0.30 m
Diameter 4.10 m
Span 29.00 m
Shape Box + pan
Manufacturer SPXS
Bus Type Starlink V2MO
Phase Status In Orbit
Owner/State SPXS/US

Most Searched